This is the latest recevied weather packets stored in our database for station/object IU5GBO-13. If no packets are shown the sender has not sent any weather packets the latest 10 day(s).
| Time | Temp. | Humidity | Pressure | Rain* | Wind** | Luminosity | Snow |
|---|---|---|---|---|---|---|---|
| 1777479373 | 21.67° C | 36% | 1015.6 hPa | - | - | - | - |
| 1777478772 | 22.22° C | 36% | 1015.6 hPa | - | - | - | - |
| 1777478172 | 22.22° C | 35% | 1015.6 hPa | - | - | - | - |
| 1777477573 | 22.22° C | 34% | 1015.7 hPa | - | - | - | - |
| 1777476973 | 22.78° C | 35% | 1015.7 hPa | - | - | - | - |
| 1777476372 | 22.78° C | 33% | 1015.6 hPa | - | - | - | - |
| 1777475772 | 23.33° C | 33% | 1015.7 hPa | - | - | - | - |
| 1777475173 | 22.78° C | 31% | 1015.7 hPa | - | - | - | - |
| 1777474572 | 22.78° C | 30% | 1015.8 hPa | - | - | - | - |
| 1777473973 | 23.33° C | 29% | 1015.7 hPa | - | - | - | - |
| 1777473373 | 23.89° C | 28% | 1015.8 hPa | - | - | - | - |
| 1777472772 | 23.33° C | 29% | 1015.8 hPa | - | - | - | - |
| 1777472172 | 23.33° C | 27% | 1016 hPa | - | - | - | - |
| 1777471572 | 23.89° C | 28% | 1016 hPa | - | - | - | - |
| 1777470972 | 23.33° C | 28% | 1016 hPa | - | - | - | - |
| 1777470372 | 23.89° C | 26% | 1016.1 hPa | - | - | - | - |
| 1777469772 | 24.44° C | 26% | 1016.2 hPa | - | - | - | - |
| 1777469172 | 24.44° C | 26% | 1016.3 hPa | - | - | - | - |
| 1777468573 | 24.44° C | 26% | 1016.5 hPa | - | - | - | - |
| 1777467972 | 24.44° C | 26% | 1016.4 hPa | - | - | - | - |
| 1777467372 | 23.89° C | 24% | 1016.4 hPa | - | - | - | - |
| 1777466772 | 24.44° C | 24% | 1016.5 hPa | - | - | - | - |
| 1777466172 | 24.44° C | 25% | 1016.5 hPa | - | - | - | - |
| 1777465572 | 24.44° C | 25% | 1016.5 hPa | - | - | - | - |
| 1777464972 | 24.44° C | 24% | 1016.5 hPa | - | - | - | - |
* Rain since midnight (hover to see other rain measurements)
** Current wind speed in m/s (hover to see current wind gust speed)